CST,Max TemperatureF,Mean TemperatureF,Min TemperatureF,Max Dew PointF,MeanDew PointF,Min DewpointF,Max Humidity, Mean Humidity, Min Humidity, Max Sea Level PressureIn, Mean Sea Level PressureIn, Min Sea Level PressureIn, Max VisibilityMiles, Mean VisibilityMiles, Min VisibilityMiles, Max Wind SpeedMPH, Mean Wind SpeedMPH, Max Gust SpeedMPH,PrecipitationIn, CloudCover, Events, WindDirDegrees
2012-12-1,67,57,47,56,52,44,96,82,67,30.06,29.96,29.87,10,9,6,22,13,30,0.00,6,,168
2012-12-2,71,63,55,57,55,48,87,70,52,30.03,29.96,29.90,10,10,10,14,7,17,0.00,2,,210
2012-12-3,75,65,54,59,56,51,93,73,53,29.97,29.88,29.79,10,9,2,32,14,40,0.46,5,Rain,187
2012-12-4,61,50,39,49,37,30,93,64,35,30.32,30.19,29.99,10,10,7,13,6,17,T,1,,331
2012-12-5,57,47,36,37,34,29,76,60,43,30.36,30.26,30.12,10,10,7,13,7,16,0.00,0,,119
2012-12-6,54,46,38,43,38,33,79,70,61,30.10,29.98,29.90,10,10,10,12,7,16,0.00,2,,129
2012-12-7,50,48,46,46,44,41,100,86,71,29.91,29.87,29.83,10,5,0,10,5,12,0.08,8,Fog-Rain,12
2012-12-8,46,44,41,45,39,35,100,88,76,30.02,29.95,29.88,10,6,0,14,8,17,0.07,8,Fog-Rain,31
2012-12-9,46,36,25,45,36,17,100,82,63,29.99,29.90,29.82,10,6,1,22,10,28,0.01,7,Rain,300
2012-12-10,30,24,18,18,16,14,84,74,63,30.09,30.03,29.96,10,10,10,20,10,28,0.00,6,,282
2012-12-11,43,30,16,20,17,13,88,64,39,30.21,30.12,30.05,10,10,10,10,7,14,0.00,0,,204
2012-12-12,51,38,24,22,18,15,81,53,24,30.30,30.24,30.21,10,10,9,18,9,22,0.00,0,,170
2012-12-13,58,45,31,26,22,18,63,45,27,30.26,30.20,30.12,10,10,10,20,10,25,0.00,0,,175
2012-12-14,54,44,34,37,28,23,76,57,38,30.19,30.07,29.87,10,10,9,16,10,21,0.05,3,Rain,158
2012-12-15,61,52,43,47,44,40,92,72,51,29.81,29.67,29.58,10,10,2,29,16,38,0.38,6,Rain,197
2012-12-16,49,42,34,45,39,34,100,91,82,29.77,29.73,29.68,10,5,0,12,5,14,0.00,6,Fog,340
2012-12-17,40,35,30,37,34,28,100,91,82,29.79,29.74,29.72,10,4,1,14,6,17,T,7,Rain,320
2012-12-18,58,44,30,37,32,28,100,70,40,29.92,29.76,29.68,10,7,2,22,10,26,0.00,0,,218
2012-12-19,49,40,31,48,36,28,100,83,65,29.95,29.74,29.43,10,6,1,20,11,26,0.15,6,Rain-Thunderstorm,105
2012-12-20,56,40,23,53,30,16,100,87,74,30.13,29.63,29.21,10,6,0,38,22,49,0.11,7,Fog-Rain-Snow,271
2012-12-21,35,28,20,18,15,11,74,61,47,30.35,30.29,30.15,10,10,10,23,9,30,0.00,0,,287
2012-12-22,53,35,16,28,20,14,84,61,38,30.29,30.10,29.95,10,10,10,14,8,18,0.00,0,,159
2012-12-23,47,37,27,32,25,18,85,63,40,29.97,29.92,29.87,10,10,7,12,6,15,0.00,1,,33
2012-12-24,30,25,20,25,19,14,92,85,77,30.18,30.05,29.88,10,6,2,17,10,22,0.00,5,,327
2012-12-25,28,24,20,22,18,15,88,79,69,30.30,30.19,30.13,10,9,6,24,14,31,0.00,7,,24
2012-12-26,31,26,20,19,17,15,84,71,58,30.22,30.15,30.07,10,10,10,21,15,26,0.00,8,,335
2012-12-27,36,30,23,24,20,18,81,67,52,30.20,30.11,30.02,10,10,10,14,6,18,0.00,5,,114
2012-12-28,36,32,28,27,25,22,78,74,69,30.02,29.96,29.90,10,10,7,16,7,21,0.00,8,,242
2012-12-29,30,26,21,22,18,14,88,73,58,30.34,30.21,30.00,10,8,2,20,11,24,0.01,5,Snow,282
2012-12-30,44,32,19,22,18,14,77,57,36,30.41,30.31,30.18,10,10,10,18,9,24,0.00,0,,193
2012-12-31,38,32,25,34,28,17,100,72,44,30.20,30.13,30.06,10,4,0,16,6,22,0.32,8,Fog-Snow,233